SCP
0 0 0 0 0 0 0 0 0 0 0 0 0 0 0 0 0 0 0 0 0 0 0 0 0 0 0 0 0 0 0 0 0 0 0 0 0 0 0 0 0 0 0
0 0 0 0 0 0 0 0 0 0 0 0 0 0 0 0 0 0 0 0 0 0 0 0 0 0 0 0 0 0 0 0 0 0 0 0 0 0 0 0 0 0 0
0 0 0 0 0 0 0 0 0 0 0 0 0 0 0 0 0 0 0 0 0 0 0 0 0 0 0 0 0 0 0 0 0 0 0 0 0 0 0 0 0 0 0
0 0 0 0 0 0 0 0 0 0 0 0 0 0 0 0 0 0 0 0 0 0 0 0 0 0 0 0 0 0 0 0 0 0 0 0 0 0 0 0 0 0 0
0 0 0 0 0 0 0 0 0 0 0 0 0 0 0 0 0 0 0 0 0 0 0 0 0 0 0 0 0 0 0 0 0 0 0 0 0 0 0 0 0 0 0
0 0 0 0 0 0 0 0 0 0 0 0 0 0 0 -0 0 0 0 -0 -0 -0 -0 -0 -0 -0 -0 0 0 0 0 0 0 0 0 0 0 0 0 0 0 0 0
0 0 0 0 0 0 0 0 0 0 0 -0 -0 -0 -0 -0 0 0 0 -0 -0 -0 -0 -0 -0 0 0 0 0 0 0 0 0 0 0 0 0 0 0 0 0 0 0
0 0 0 0 0 0 0 0 0 0 0 0 0 0 0 0 0 0 0 0 0 0 0 -0 -0 0 0 0 0 0 0 0 0 0 0 0 0 0 0 0 0 0 0
0 0 0 0 0 0 0 0 0 0 0 0 0 0 0 0 0 0 0 0 0 0 -0 -0 0 -0 0 0 0 0 0 0 0 0 0 0 0 0 0 0 0 0 0
0 0 0 0 0 0 0 0 0 0 0 0 0 0 0 0 0 0 0 0 0 0 0 0 0 0 0 0 0 0 0 0 0 0 0 0 0 0 0 0 0 0 0
0 0 0 0 0 0 0 0 0 0 0 0 0 0 0 0 0 0 0 0 0 0 0 0 0 0 0 0 0 0 0 0 0 0 0 0 0 0 -0 -0 0 0 0
0 0 0 0 0 0 0 0 0 0 0 0 0 0 0 0 0 0 0 0 0 0 0 0 0 0 0 0 0 0 0 0 0 0 0 0 0 -0 -0 0 0 0 0
0 0 0 0 0 0 0 0 0 0 0 0 0 0 0 0 0 0 0 0 0 0 0 0 0 0 0 0 0 0 0 -0 -0 -0 0 0 0 0 0 0 0 0 0
0 0 0 0 0 0 0 0 0 0 0 0 0 0 0 0 0 0 0 0 0 0 0 0 0 0 0 0 0 0 0 0 0 0 -0 0 0 0 0 0 0 0 0
0 0 0 0 0 0 0 0 0 0 0 0 0 0 0 0 0 0 0 0 0 0 0 0 -0 -0 -0 -0 -0 0 0 0 0 0 0 0 0 0 0 0 0 0 0
0 0 0 0 0 0 0 0 0 0 0 0 0 0 0 0 0 0 0 0 0 0 0 -0 -0 -0 -0 -0 -0 -0 0 0 0 0 0 0 0 0 0 0 0 0 0
0 0 0 0 0 0 0 0 0 0 0 0 0 0 0 0 0 0 0 0 0 0 0 0 -0 -0 -0 -0 -0 -0 -0 -0 0 0 0 0 0 0 0 0 0 0 0
0 0 0 0 0 0 0 0 0 0 0 0 0 0 0 0 0 0 0 0 0 0 0 0 0 0 0 0 -0 -0 0 0 0 0 0 0 0 0 0 0 0 0 0
0 0 0 0 0 0 0 0 0 0 0 0 0 0 0 0 0 0 0 0 0 0 0 0 0 0 0 0 0 -0 0 0 -0 0 0 0 0 0 0 0 0 0 0
0 0 0 0 0 0 0 0 0 0 0 0 0 0 0 0 0 0 0 0 0 0 0 0 0 0 0 0 0 0 -0 0 0 0 0 0 0 0 0 0 0 0 0
0 0 0 0 0 0 0 0 0 0 0 0 0 0 0 0 0 0 0 0 0 0 0 0 0 0 0 0 0 0 0 0 -0 0 0 0 0 0 0 0 0 0 0
0 0 0 0 0 0 0 0 0 0 0 0 0 0 0 0 0 0 0 0 0 0 0 0 0 0 0 0 0 0 0 0 0 0 0 0 0 0 0 0 0 0 0
0 0 0 0 0 0 0 0 0 0 0 0 0 0 0 0 0 0 0 0 0 0 0 0 0 0 0 0 0 0 0 0 0 0 0 0 0 0 0 0 0 0 0
0 0 0 0 0 0 0 0 0 0 0 0 0 0 0 0 0 0 0 0 0 0 0 0 0 0 0 0 0 0 0 0 0 0 0 0 0 0 0 0 0 0 0
0 0 0 0 0 0 0 0 0 0 0 0 0 0 0 0 0 0 0 0 0 0 0 0 0 0 0 0 0 0 0 0 0 0 0 0 0 0 0 0 0 0 0
0 0 0 0 0 0 0 0 0 0 0 0 0 0 0 0 0 0 0 0 0 0 0 0 0 0 0 0 0 0 0 0 0 0 0 0 0 0 0 0 0 0 0
Wind_Speed_500mb
20 19 15 13 10 7 6 7 9 12 14 16 20 23 25 28 30 33 38 43 47 51 50 56 61 62 62 66 75 81 82 84 90 103 93 92 92 97 91 87 86 83 85
11 9 7 8 7 8 11 13 15 18 20 22 23 24 27 31 35 40 43 47 51 56 57 57 59 61 64 68 69 77 82 88 90 99 112 83 102 98 101 93 95 90 84
7 8 9 10 10 12 14 16 16 18 21 23 26 29 32 35 39 44 49 53 56 58 60 63 65 63 64 65 67 76 79 80 82 94 102 106 85 99 109 89 104 105 101
4 11 12 11 12 14 17 21 24 24 25 29 32 35 37 40 43 48 54 60 65 68 69 69 69 68 65 68 70 74 81 87 90 89 96 91 96 84 108 95 96 109 97
11 12 11 9 15 21 25 26 29 33 36 39 42 44 46 49 52 59 63 66 70 74 75 75 76 79 81 75 71 74 75 77 83 80 95 94 93 87 95 94 108 91 113
11 11 11 13 17 21 25 30 34 37 40 44 48 51 54 56 63 69 72 77 75 76 81 84 84 87 86 85 84 83 80 79 82 81 94 89 101 96 98 90 87 85 104
11 10 9 13 17 21 26 32 35 40 43 45 49 53 55 58 63 68 73 75 79 82 84 88 90 88 87 91 94 93 88 81 78 74 86 98 102 74 79 99 100 96 102
8 7 8 12 14 20 25 29 31 36 40 44 46 47 48 50 53 56 59 59 60 65 71 77 82 88 85 81 85 90 86 80 78 80 85 103 98 106 98 89 89 104 110
8 3 6 9 14 19 24 29 32 34 36 39 40 41 42 43 47 51 56 60 61 64 68 73 81 83 82 77 84 92 96 96 87 83 98 111 113 115 102 106 108 90 97
6 2 5 12 18 23 27 28 33 36 38 39 42 44 48 50 53 56 58 65 70 76 74 73 75 82 85 83 84 89 98 104 98 98 101 104 106 111 103 91 98 100 87
6 3 6 12 15 18 23 28 32 35 37 38 40 44 47 51 56 57 58 58 67 75 83 89 88 90 93 92 82 71 79 93 95 95 98 99 96 98 97 87 78 80 98
6 1 6 12 18 22 25 28 29 31 35 39 42 45 49 49 56 49 56 55 60 69 76 78 85 89 90 87 84 82 82 78 72 74 95 95 87 91 91 89 82 82 83
3 4 9 15 18 19 20 22 26 31 36 39 43 46 50 50 57 53 60 58 60 65 67 73 78 81 81 82 81 81 79 77 77 80 77 70 82 96 98 92 87 82 85
5 7 11 13 14 16 19 23 27 31 35 38 41 46 50 51 55 62 66 67 69 73 78 80 80 79 76 76 80 81 80 79 79 78 84 88 86 88 92 97 92 84 86
8 10 12 13 14 16 21 24 27 29 32 36 39 43 48 54 53 56 58 63 67 70 75 77 80 83 87 87 83 82 84 87 88 85 84 87 87 84 78 87 92 86 82
10 11 12 14 16 18 19 20 23 25 28 30 32 37 41 43 47 53 53 57 62 68 70 74 77 79 83 87 87 89 87 87 88 91 91 90 92 91 86 77 85 87 82
11 13 14 16 18 21 24 27 25 20 28 32 35 36 38 43 47 52 56 61 61 68 69 73 75 78 82 84 85 87 91 88 88 89 92 96 95 94 93 81 75 77 79
13 14 16 17 20 23 26 29 33 39 41 37 35 41 40 41 46 51 59 64 66 63 65 69 74 78 80 84 85 88 92 92 91 90 91 95 97 95 98 95 79 78 72
14 15 16 19 22 25 28 31 34 37 41 45 49 44 47 44 43 49 55 61 67 71 73 72 72 74 78 82 85 86 88 91 89 91 91 95 98 94 100 99 94 81 70
16 16 17 20 23 26 30 33 36 39 42 45 49 55 58 59 60 61 58 60 63 66 70 73 75 76 78 80 83 86 91 90 90 89 88 92 96 92 97 103 98 94 82
17 18 20 23 26 29 33 36 39 43 45 46 48 51 53 57 63 63 65 64 66 66 68 70 71 72 73 76 79 83 86 90 90 89 85 90 95 95 106 101 101 89 85
19 20 22 24 28 31 34 37 40 43 46 50 49 49 52 55 60 63 63 63 64 65 69 72 71 67 68 71 75 80 83 85 88 90 82 84 89 91 103 102 101 94 83
23 24 26 28 29 32 35 38 41 44 46 48 53 55 56 58 60 63 66 66 66 65 65 68 71 70 63 63 67 73 79 79 80 84 76 79 83 92 98 97 95 95 82
26 27 28 31 32 33 37 39 42 45 47 49 51 54 58 60 62 64 66 68 67 64 62 64 66 68 68 65 65 67 70 69 71 78 60 74 80 88 93 92 91 89 81
29 30 31 32 35 37 39 41 42 44 47 50 53 56 59 62 65 67 68 68 68 67 63 61 61 63 64 66 67 66 64 62 65 67 59 68 73 82 85 88 88 85 78
31 32 33 35 37 39 41 42 44 46 48 50 53 56 61 63 65 67 69 69 70 69 66 63 59 58 60 66 69 66 62 59 63 60 56 70 77 79 81 84 86 81 74
Wind_Direction_500mb
100 95 95 92 80 58 34 21 4 351 334 327 326 327 322 318 313 306 302 299 293 292 293 288 286 284 288 294 293 292 276 287 280 282 280 282 284 282 282 282 283 279 275
91 75 55 31 13 3 359 356 348 345 343 337 332 327 323 317 310 304 300 299 298 296 294 292 291 291 289 286 286 289 289 286 285 276 291 275 282 284 288 286 287 283 280
21 14 8 3 11 5 359 356 351 348 339 334 328 325 324 320 316 309 307 304 302 300 300 298 298 296 291 289 288 282 281 288 287 286 284 289 280 292 276 286 276 291 282
337 342 340 345 351 2 1 354 351 350 347 346 345 340 336 331 323 317 312 309 306 306 306 305 304 301 297 292 289 287 286 285 282 280 287 287 284 283 281 275 276 283 283
328 328 331 335 357 358 6 4 3 3 1 359 356 355 351 345 339 334 329 325 321 316 314 311 308 305 304 302 298 292 292 288 284 287 285 282 283 284 275 285 291 277 278
300 303 330 352 356 3 7 9 8 5 5 4 360 359 356 353 347 342 339 335 332 329 325 321 318 313 309 304 301 299 297 297 294 286 279 285 285 281 286 286 284 281 275
291 324 336 0 18 13 16 15 12 11 8 5 3 2 360 355 349 343 338 336 333 331 328 326 322 319 316 313 307 302 298 298 293 290 290 282 282 292 295 287 281 283 273
262 292 343 18 21 24 22 20 16 14 10 8 6 5 2 355 347 339 334 333 330 329 330 329 327 324 323 318 312 306 300 295 294 292 286 284 282 276 273 274 287 284 280
241 284 13 23 28 26 22 14 11 10 10 7 2 357 354 349 346 343 340 338 337 337 338 339 337 334 328 321 315 310 305 301 297 290 285 285 286 286 283 279 275 287 279
221 181 44 33 26 17 12 8 7 4 0 359 356 354 351 347 347 346 346 342 338 337 339 337 337 334 325 321 317 313 307 306 307 308 304 297 294 291 292 287 279 272 271
170 105 32 23 15 9 1 354 353 354 349 345 343 345 346 346 348 349 348 345 340 335 340 341 339 335 333 330 324 322 317 309 305 299 299 304 302 301 300 294 287 278 268
179 92 2 358 358 354 346 343 340 340 340 339 340 342 345 346 349 349 345 344 341 337 339 338 335 335 334 333 329 322 310 311 318 313 297 295 300 306 305 298 291 281 278
210 329 339 341 337 333 334 336 338 339 342 344 345 344 344 344 346 345 342 341 339 336 336 335 333 333 334 334 336 335 330 326 316 311 308 311 301 298 303 302 295 291 284
267 305 313 315 324 335 341 341 341 342 342 341 340 340 340 340 343 341 339 340 338 338 336 336 335 334 336 337 339 342 344 341 336 327 317 309 308 302 300 296 296 294 283
271 289 301 316 329 337 339 344 346 342 340 340 338 335 336 336 342 337 337 338 338 336 335 335 337 340 341 343 345 345 345 346 343 337 331 325 319 320 309 296 293 292 277
274 294 306 316 324 329 332 338 339 337 332 329 328 329 330 327 329 332 333 337 337 334 337 340 343 345 345 344 344 344 345 346 344 344 341 336 333 329 323 315 288 291 280
284 293 303 314 320 324 328 327 325 328 331 329 328 328 326 326 325 327 329 333 334 332 339 341 343 344 343 342 342 341 340 343 344 344 344 342 337 334 332 324 319 291 287
284 293 305 312 318 323 325 328 331 331 332 331 329 328 329 328 326 329 330 328 328 332 337 340 340 341 341 340 340 339 338 339 342 343 342 342 341 338 336 331 324 322 288
280 290 299 309 317 320 325 327 327 328 328 329 329 329 328 329 330 333 329 330 332 335 336 338 339 339 338 338 339 339 338 339 339 339 339 339 341 340 337 335 329 323 318
276 289 299 306 312 317 320 322 323 325 326 328 329 330 331 333 336 335 335 335 333 333 333 333 335 336 336 337 337 337 338 338 339 338 337 338 339 339 332 334 331 325 321
279 288 296 302 309 314 317 320 322 323 324 326 327 328 330 330 330 333 334 334 332 330 329 329 330 331 331 333 334 335 336 337 338 338 335 336 339 338 333 334 332 327 323
280 288 296 302 307 311 313 316 318 319 319 321 322 326 326 327 328 329 330 330 329 328 327 327 327 328 329 331 332 334 334 336 336 336 333 335 338 332 333 332 332 330 325
284 291 297 300 304 307 310 312 314 314 316 319 322 325 327 327 327 327 327 327 327 326 324 322 322 325 328 328 330 332 331 332 332 333 330 335 337 327 333 332 331 330 325
284 289 293 297 301 306 307 307 309 311 315 318 320 322 324 325 326 326 326 325 324 324 323 321 319 322 324 326 329 329 328 328 328 329 330 338 331 328 334 333 332 330 325
281 286 290 296 300 302 301 304 308 311 314 317 320 321 323 324 325 325 324 323 323 324 324 321 320 319 320 324 326 325 326 327 328 332 335 334 332 327 333 334 334 331 328
279 285 289 293 295 297 302 305 308 311 313 316 317 319 321 323 323 324 324 324 325 324 323 321 320 321 321 323 324 325 326 327 327 338 339 334 328 331 334 336 337 335 333
Wind_Speed_850mb
20 19 15 13 10 7 6 7 9 12 14 16 20 23 25 28 30 33 38 43 47 51 50 56 61 62 62 66 75 81 82 84 90 103 93 92 92 97 91 87 86 83 85
11 9 7 8 7 8 11 13 15 18 20 22 23 24 27 31 35 40 43 47 51 56 57 57 59 61 64 68 69 77 82 88 90 99 112 83 102 98 101 93 95 90 84
7 8 9 10 10 12 14 16 16 18 21 23 26 29 32 35 39 44 49 53 56 58 60 63 65 63 64 65 67 76 79 80 82 94 102 106 85 99 109 89 104 105 101
4 11 12 11 12 14 17 21 24 24 25 29 32 35 37 40 43 48 54 60 65 68 69 69 69 68 65 68 70 74 81 87 90 89 96 91 96 84 108 95 96 109 97
11 12 11 9 15 21 25 26 29 33 36 39 42 44 46 49 52 59 63 66 70 74 75 75 76 79 81 75 71 74 75 77 83 80 95 94 93 87 95 94 108 91 113
11 11 11 13 17 21 25 30 34 37 40 44 48 51 54 56 63 69 72 77 75 76 81 84 84 87 86 85 84 83 80 79 82 81 94 89 101 96 98 90 87 85 104
11 10 9 13 17 21 26 32 35 40 43 45 49 53 55 58 63 68 73 75 79 82 84 88 90 88 87 91 94 93 88 81 78 74 86 98 102 74 79 99 100 96 102
8 7 8 12 14 20 25 29 31 36 40 44 46 47 48 50 53 56 59 59 60 65 71 77 82 88 85 81 85 90 86 80 78 80 85 103 98 106 98 89 89 104 110
8 3 6 9 14 19 24 29 32 34 36 39 40 41 42 43 47 51 56 60 61 64 68 73 81 83 82 77 84 92 96 96 87 83 98 111 113 115 102 106 108 90 97
6 2 5 12 18 23 27 28 33 36 38 39 42 44 48 50 53 56 58 65 70 76 74 73 75 82 85 83 84 89 98 104 98 98 101 104 106 111 103 91 98 100 87
6 3 6 12 15 18 23 28 32 35 37 38 40 44 47 51 56 57 58 58 67 75 83 89 88 90 93 92 82 71 79 93 95 95 98 99 96 98 97 87 78 80 98
6 1 6 12 18 22 25 28 29 31 35 39 42 45 49 49 56 49 56 55 60 69 76 78 85 89 90 87 84 82 82 78 72 74 95 95 87 91 91 89 82 82 83
3 4 9 15 18 19 20 22 26 31 36 39 43 46 50 50 57 53 60 58 60 65 67 73 78 81 81 82 81 81 79 77 77 80 77 70 82 96 98 92 87 82 85
5 7 11 13 14 16 19 23 27 31 35 38 41 46 50 51 55 62 66 67 69 73 78 80 80 79 76 76 80 81 80 79 79 78 84 88 86 88 92 97 92 84 86
8 10 12 13 14 16 21 24 27 29 32 36 39 43 48 54 53 56 58 63 67 70 75 77 80 83 87 87 83 82 84 87 88 85 84 87 87 84 78 87 92 86 82
10 11 12 14 16 18 19 20 23 25 28 30 32 37 41 43 47 53 53 57 62 68 70 74 77 79 83 87 87 89 87 87 88 91 91 90 92 91 86 77 85 87 82
11 13 14 16 18 21 24 27 25 20 28 32 35 36 38 43 47 52 56 61 61 68 69 73 75 78 82 84 85 87 91 88 88 89 92 96 95 94 93 81 75 77 79
13 14 16 17 20 23 26 29 33 39 41 37 35 41 40 41 46 51 59 64 66 63 65 69 74 78 80 84 85 88 92 92 91 90 91 95 97 95 98 95 79 78 72
14 15 16 19 22 25 28 31 34 37 41 45 49 44 47 44 43 49 55 61 67 71 73 72 72 74 78 82 85 86 88 91 89 91 91 95 98 94 100 99 94 81 70
16 16 17 20 23 26 30 33 36 39 42 45 49 55 58 59 60 61 58 60 63 66 70 73 75 76 78 80 83 86 91 90 90 89 88 92 96 92 97 103 98 94 82
17 18 20 23 26 29 33 36 39 43 45 46 48 51 53 57 63 63 65 64 66 66 68 70 71 72 73 76 79 83 86 90 90 89 85 90 95 95 106 101 101 89 85
19 20 22 24 28 31 34 37 40 43 46 50 49 49 52 55 60 63 63 63 64 65 69 72 71 67 68 71 75 80 83 85 88 90 82 84 89 91 103 102 101 94 83
23 24 26 28 29 32 35 38 41 44 46 48 53 55 56 58 60 63 66 66 66 65 65 68 71 70 63 63 67 73 79 79 80 84 76 79 83 92 98 97 95 95 82
26 27 28 31 32 33 37 39 42 45 47 49 51 54 58 60 62 64 66 68 67 64 62 64 66 68 68 65 65 67 70 69 71 78 60 74 80 88 93 92 91 89 81
29 30 31 32 35 37 39 41 42 44 47 50 53 56 59 62 65 67 68 68 68 67 63 61 61 63 64 66 67 66 64 62 65 67 59 68 73 82 85 88 88 85 78
31 32 33 35 37 39 41 42 44 46 48 50 53 56 61 63 65 67 69 69 70 69 66 63 59 58 60 66 69 66 62 59 63 60 56 70 77 79 81 84 86 81 74
Wind_Direction_850mb
100 95 95 92 80 58 34 21 4 351 334 327 326 327 322 318 313 306 302 299 293 292 293 288 286 284 288 294 293 292 276 287 280 282 280 282 284 282 282 282 283 279 275
91 75 55 31 13 3 359 356 348 345 343 337 332 327 323 317 310 304 300 299 298 296 294 292 291 291 289 286 286 289 289 286 285 276 291 275 282 284 288 286 287 283 280
21 14 8 3 11 5 359 356 351 348 339 334 328 325 324 320 316 309 307 304 302 300 300 298 298 296 291 289 288 282 281 288 287 286 284 289 280 292 276 286 276 291 282
337 342 340 345 351 2 1 354 351 350 347 346 345 340 336 331 323 317 312 309 306 306 306 305 304 301 297 292 289 287 286 285 282 280 287 287 284 283 281 275 276 283 283
328 328 331 335 357 358 6 4 3 3 1 359 356 355 351 345 339 334 329 325 321 316 314 311 308 305 304 302 298 292 292 288 284 287 285 282 283 284 275 285 291 277 278
300 303 330 352 356 3 7 9 8 5 5 4 360 359 356 353 347 342 339 335 332 329 325 321 318 313 309 304 301 299 297 297 294 286 279 285 285 281 286 286 284 281 275
291 324 336 0 18 13 16 15 12 11 8 5 3 2 360 355 349 343 338 336 333 331 328 326 322 319 316 313 307 302 298 298 293 290 290 282 282 292 295 287 281 283 273
262 292 343 18 21 24 22 20 16 14 10 8 6 5 2 355 347 339 334 333 330 329 330 329 327 324 323 318 312 306 300 295 294 292 286 284 282 276 273 274 287 284 280
241 284 13 23 28 26 22 14 11 10 10 7 2 357 354 349 346 343 340 338 337 337 338 339 337 334 328 321 315 310 305 301 297 290 285 285 286 286 283 279 275 287 279
221 181 44 33 26 17 12 8 7 4 0 359 356 354 351 347 347 346 346 342 338 337 339 337 337 334 325 321 317 313 307 306 307 308 304 297 294 291 292 287 279 272 271
170 105 32 23 15 9 1 354 353 354 349 345 343 345 346 346 348 349 348 345 340 335 340 341 339 335 333 330 324 322 317 309 305 299 299 304 302 301 300 294 287 278 268
179 92 2 358 358 354 346 343 340 340 340 339 340 342 345 346 349 349 345 344 341 337 339 338 335 335 334 333 329 322 310 311 318 313 297 295 300 306 305 298 291 281 278
210 329 339 341 337 333 334 336 338 339 342 344 345 344 344 344 346 345 342 341 339 336 336 335 333 333 334 334 336 335 330 326 316 311 308 311 301 298 303 302 295 291 284
267 305 313 315 324 335 341 341 341 342 342 341 340 340 340 340 343 341 339 340 338 338 336 336 335 334 336 337 339 342 344 341 336 327 317 309 308 302 300 296 296 294 283
271 289 301 316 329 337 339 344 346 342 340 340 338 335 336 336 342 337 337 338 338 336 335 335 337 340 341 343 345 345 345 346 343 337 331 325 319 320 309 296 293 292 277
274 294 306 316 324 329 332 338 339 337 332 329 328 329 330 327 329 332 333 337 337 334 337 340 343 345 345 344 344 344 345 346 344 344 341 336 333 329 323 315 288 291 280
284 293 303 314 320 324 328 327 325 328 331 329 328 328 326 326 325 327 329 333 334 332 339 341 343 344 343 342 342 341 340 343 344 344 344 342 337 334 332 324 319 291 287
284 293 305 312 318 323 325 328 331 331 332 331 329 328 329 328 326 329 330 328 328 332 337 340 340 341 341 340 340 339 338 339 342 343 342 342 341 338 336 331 324 322 288
280 290 299 309 317 320 325 327 327 328 328 329 329 329 328 329 330 333 329 330 332 335 336 338 339 339 338 338 339 339 338 339 339 339 339 339 341 340 337 335 329 323 318
276 289 299 306 312 317 320 322 323 325 326 328 329 330 331 333 336 335 335 335 333 333 333 333 335 336 336 337 337 337 338 338 339 338 337 338 339 339 332 334 331 325 321
279 288 296 302 309 314 317 320 322 323 324 326 327 328 330 330 330 333 334 334 332 330 329 329 330 331 331 333 334 335 336 337 338 338 335 336 339 338 333 334 332 327 323
280 288 296 302 307 311 313 316 318 319 319 321 322 326 326 327 328 329 330 330 329 328 327 327 327 328 329 331 332 334 334 336 336 336 333 335 338 332 333 332 332 330 325
284 291 297 300 304 307 310 312 314 314 316 319 322 325 327 327 327 327 327 327 327 326 324 322 322 325 328 328 330 332 331 332 332 333 330 335 337 327 333 332 331 330 325
284 289 293 297 301 306 307 307 309 311 315 318 320 322 324 325 326 326 326 325 324 324 323 321 319 322 324 326 329 329 328 328 328 329 330 338 331 328 334 333 332 330 325
281 286 290 296 300 302 301 304 308 311 314 317 320 321 323 324 325 325 324 323 323 324 324 321 320 319 320 324 326 325 326 327 328 332 335 334 332 327 333 334 334 331 328
279 285 289 293 295 297 302 305 308 311 313 316 317 319 321 323 323 324 324 324 325 324 323 321 320 321 321 323 324 325 326 327 327 338 339 334 328 331 334 336 337 335 333